AAL23 KSFO-KLAX

Flight info

Callsign AAL23
Flight time 0h 54m
Altitude 37000
Route WESLA5 SUSEY EBAYE BURGL IRNMN2
Aircraft A21N/M-SDE2E3FGHIRWXY/LB1

Departure

Time 2026-05-06 20:25
Airport San Francisco International Airport (KSFO)

Arrival

Time 2026-05-06 21:20
Airport Los Angeles International Airport (KLAX)
Time Latitude Longitude Altitude Speed Heading
2026-05-06 20:03 37.61921 -122.38351 32 ft 0 kts 291°
2026-05-06 20:10 37.61920 -122.38348 32 ft 2 kts 292°
2026-05-06 20:10 37.61912 -122.38332 32 ft 2 kts 316°
2026-05-06 20:10 37.61900 -122.38320 32 ft 2 kts 332°
2026-05-06 20:10 37.61886 -122.38313 32 ft 2 kts 351°
2026-05-06 20:11 37.61871 -122.38313 32 ft 2 kts
2026-05-06 20:11 37.61856 -122.38318 32 ft 2 kts 26°
2026-05-06 20:11 37.61845 -122.38326 32 ft 0 kts 32°
2026-05-06 20:11 37.61843 -122.38328 32 ft 0 kts 31°
2026-05-06 20:18 37.61843 -122.38327 32 ft 1 kts 30°
2026-05-06 20:19 37.61905 -122.38284 32 ft 14 kts 28°
2026-05-06 20:19 37.61958 -122.38197 32 ft 13 kts 104°
2026-05-06 20:19 37.61917 -122.38090 32 ft 14 kts 118°
2026-05-06 20:19 37.61871 -122.37978 31 ft 14 kts 117°
2026-05-06 20:20 37.61820 -122.37835 28 ft 18 kts 109°
2026-05-06 20:20 37.61801 -122.37771 27 ft 7 kts 112°
2026-05-06 20:20 37.61769 -122.37678 25 ft 15 kts 114°
2026-05-06 20:20 37.61730 -122.37547 21 ft 16 kts 112°
2026-05-06 20:21 37.61673 -122.37405 17 ft 19 kts 119°
2026-05-06 20:21 37.61609 -122.37250 15 ft 20 kts 118°
2026-05-06 20:21 37.61541 -122.37090 12 ft 21 kts 117°
2026-05-06 20:21 37.61465 -122.36920 12 ft 20 kts 127°
2026-05-06 20:22 37.61382 -122.36803 12 ft 21 kts 128°
2026-05-06 20:22 37.61302 -122.36630 12 ft 22 kts 118°
2026-05-06 20:22 37.61229 -122.36456 10 ft 22 kts 118°
2026-05-06 20:22 37.61154 -122.36278 9 ft 22 kts 118°
2026-05-06 20:23 37.61081 -122.36103 9 ft 22 kts 118°
2026-05-06 20:23 37.61057 -122.35970 9 ft 11 kts 75°
2026-05-06 20:23 37.61062 -122.35952 9 ft 0 kts 69°
2026-05-06 20:24 37.61087 -122.35916 9 ft 12 kts 36°
2026-05-06 20:24 37.61165 -122.35870 9 ft 12 kts
2026-05-06 20:24 37.61196 -122.35900 9 ft 4 kts 304°
2026-05-06 20:24 37.61238 -122.35995 9 ft 38 kts 298°
2026-05-06 20:25 37.61507 -122.36636 12 ft 125 kts 298°
2026-05-06 20:25 37.62029 -122.37876 97 ft 187 kts 298°
2026-05-06 20:25 37.62664 -122.39372 847 ft 201 kts 298°
2026-05-06 20:25 37.63324 -122.40936 1851 ft 210 kts 299°
2026-05-06 20:26 37.64000 -122.42551 2933 ft 215 kts 299°
2026-05-06 20:26 37.64765 -122.44254 3723 ft 237 kts 302°
2026-05-06 20:26 37.65605 -122.46084 4679 ft 252 kts 302°
2026-05-06 20:26 37.66452 -122.47993 5784 ft 252 kts 300°
2026-05-06 20:27 37.66958 -122.50073 6641 ft 263 kts 274°
2026-05-06 20:27 37.66556 -122.52387 7270 ft 284 kts 243°
2026-05-06 20:27 37.65200 -122.54213 8085 ft 294 kts 212°
2026-05-06 20:27 37.63258 -122.54929 8965 ft 297 kts 179°
2026-05-06 20:28 37.61266 -122.54335 9815 ft 299 kts 155°
2026-05-06 20:28 37.59398 -122.53251 10632 ft 304 kts 153°
2026-05-06 20:28 37.57429 -122.52107 11170 ft 320 kts 154°
2026-05-06 20:28 37.55335 -122.50929 11621 ft 338 kts 154°
2026-05-06 20:29 37.53128 -122.49721 12224 ft 350 kts 154°
2026-05-06 20:29 37.50889 -122.48482 13031 ft 353 kts 152°
2026-05-06 20:29 37.48829 -122.46906 13858 ft 352 kts 141°
2026-05-06 20:29 37.46998 -122.44878 14657 ft 353 kts 132°
2026-05-06 20:30 37.45311 -122.42625 15400 ft 357 kts 130°
2026-05-06 20:30 37.41931 -122.37970 16818 ft 366 kts 129°
2026-05-06 20:30 37.40207 -122.35604 17511 ft 370 kts 129°
2026-05-06 20:31 37.38483 -122.33248 18181 ft 374 kts 130°
2026-05-06 20:31 37.36713 -122.30835 18833 ft 378 kts 130°
2026-05-06 20:31 37.34919 -122.28394 19458 ft 383 kts 130°
2026-05-06 20:31 37.33099 -122.25924 20069 ft 388 kts 130°
2026-05-06 20:32 37.31256 -122.23425 20669 ft 393 kts 130°
2026-05-06 20:32 37.29390 -122.20899 21266 ft 397 kts 130°
2026-05-06 20:32 37.27503 -122.18346 21847 ft 401 kts 130°
2026-05-06 20:32 37.25620 -122.15804 22399 ft 406 kts 130°
2026-05-06 20:33 37.23688 -122.13196 22960 ft 410 kts 130°
2026-05-06 20:33 37.21737 -122.10561 23507 ft 414 kts 130°
2026-05-06 20:33 37.19769 -122.07910 24072 ft 417 kts 130°
2026-05-06 20:33 37.17814 -122.05276 24611 ft 420 kts 130°
2026-05-06 20:34 37.15816 -122.02586 25135 ft 423 kts 130°
2026-05-06 20:34 37.13800 -121.99876 25630 ft 426 kts 130°
2026-05-06 20:34 37.11770 -121.97149 26108 ft 430 kts 130°
2026-05-06 20:34 37.09753 -121.94442 26564 ft 433 kts 130°
2026-05-06 20:35 37.07693 -121.91680 27014 ft 436 kts 130°
2026-05-06 20:35 37.05619 -121.88901 27452 ft 439 kts 130°
2026-05-06 20:35 37.03531 -121.86105 27886 ft 441 kts 130°
2026-05-06 20:35 37.01428 -121.83292 28307 ft 444 kts 130°
2026-05-06 20:36 36.99313 -121.80465 28711 ft 447 kts 130°
2026-05-06 20:36 36.97185 -121.77623 29099 ft 449 kts 130°
2026-05-06 20:36 36.95074 -121.74805 29478 ft 452 kts 130°
2026-05-06 20:36 36.92920 -121.71933 29836 ft 454 kts 130°
2026-05-06 20:37 36.90753 -121.69048 30182 ft 457 kts 130°
2026-05-06 20:37 36.88571 -121.66146 30519 ft 459 kts 130°
2026-05-06 20:37 36.86381 -121.63233 30847 ft 461 kts 130°
2026-05-06 20:37 36.84219 -121.60362 31268 ft 460 kts 130°
2026-05-06 20:38 36.82035 -121.57466 31742 ft 457 kts 130°
2026-05-06 20:38 36.79856 -121.54578 32215 ft 455 kts 129°
2026-05-06 20:38 36.77693 -121.51714 32663 ft 453 kts 129°
2026-05-06 20:38 36.75540 -121.48863 33085 ft 451 kts 129°
2026-05-06 20:39 36.73425 -121.46065 33471 ft 449 kts 129°
2026-05-06 20:39 36.71285 -121.43235 33847 ft 448 kts 129°
2026-05-06 20:39 36.69147 -121.40410 34218 ft 447 kts 129°
2026-05-06 20:39 36.67016 -121.37595 34575 ft 447 kts 129°
2026-05-06 20:40 36.64885 -121.34785 34920 ft 446 kts 129°
2026-05-06 20:40 36.62778 -121.32008 35286 ft 445 kts 129°
2026-05-06 20:40 36.60651 -121.29208 35607 ft 444 kts 129°
2026-05-06 20:40 36.58522 -121.26406 35873 ft 445 kts 129°
2026-05-06 20:41 36.56421 -121.23643 36122 ft 446 kts 129°
2026-05-06 20:41 36.54289 -121.20841 36364 ft 447 kts 129°
2026-05-06 20:41 36.52153 -121.18037 36597 ft 447 kts 129°
2026-05-06 20:41 36.50012 -121.15229 36812 ft 448 kts 129°
2026-05-06 20:42 36.47866 -121.12416 36994 ft 449 kts 129°
2026-05-06 20:42 36.45713 -121.09597 37113 ft 451 kts 129°
2026-05-06 20:42 36.43560 -121.06769 37116 ft 450 kts 128°
2026-05-06 20:43 36.39475 -121.00971 37112 ft 449 kts 126°
2026-05-06 20:43 36.35384 -120.95092 37107 ft 450 kts 126°
2026-05-06 20:44 36.31318 -120.89256 37108 ft 450 kts 126°
2026-05-06 20:44 36.27227 -120.83393 37108 ft 449 kts 126°
2026-05-06 20:45 36.23140 -120.77548 37109 ft 449 kts 126°
2026-05-06 20:45 36.19082 -120.71753 37109 ft 449 kts 126°
2026-05-06 20:46 36.14994 -120.65926 37107 ft 449 kts 126°
2026-05-06 20:46 36.10898 -120.60097 37107 ft 449 kts 126°
2026-05-06 20:47 36.06826 -120.54312 37107 ft 449 kts 126°
2026-05-06 20:47 36.02727 -120.48497 37110 ft 448 kts 126°
2026-05-06 20:48 35.98660 -120.42734 37111 ft 448 kts 126°
2026-05-06 20:48 35.94564 -120.36942 37100 ft 448 kts 126°
2026-05-06 20:49 35.90387 -120.31201 37096 ft 450 kts 129°
2026-05-06 20:49 35.85764 -120.25979 37093 ft 455 kts 136°
2026-05-06 20:50 35.80606 -120.21372 37091 ft 460 kts 142°
2026-05-06 20:50 35.75181 -120.17268 37091 ft 461 kts 143°
2026-05-06 20:51 35.69712 -120.13149 37090 ft 460 kts 143°
2026-05-06 20:51 35.64286 -120.09060 37091 ft 460 kts 143°
2026-05-06 20:52 35.58814 -120.04937 37091 ft 460 kts 143°
2026-05-06 20:52 35.53379 -120.00843 37101 ft 460 kts 143°
2026-05-06 20:53 35.47912 -119.96729 37105 ft 460 kts 143°
2026-05-06 20:53 35.42493 -119.92657 37103 ft 460 kts 143°
2026-05-06 20:54 35.37041 -119.88562 37105 ft 460 kts 143°
2026-05-06 20:54 35.31582 -119.84470 37112 ft 460 kts 143°
2026-05-06 20:55 35.26347 -119.80110 37121 ft 456 kts 137°
2026-05-06 20:55 35.21304 -119.75400 37129 ft 456 kts 137°
2026-05-06 20:56 35.16273 -119.70690 37126 ft 455 kts 137°
2026-05-06 20:56 35.11275 -119.66026 37121 ft 455 kts 137°
2026-05-06 20:57 35.06244 -119.61339 37121 ft 455 kts 137°
2026-05-06 20:57 35.01212 -119.56656 37127 ft 455 kts 137°
2026-05-06 20:58 34.96178 -119.51980 37129 ft 455 kts 137°
2026-05-06 20:58 34.91169 -119.47341 37134 ft 455 kts 137°
2026-05-06 20:59 34.86033 -119.42731 37139 ft 456 kts 137°
2026-05-06 20:59 34.83516 -119.40489 37027 ft 452 kts 137°
2026-05-06 20:59 34.81003 -119.38251 36269 ft 447 kts 137°
2026-05-06 20:59 34.78501 -119.36015 34719 ft 454 kts 137°
2026-05-06 21:00 34.75950 -119.33727 32902 ft 465 kts 138°
2026-05-06 21:00 34.73342 -119.31407 31473 ft 466 kts 139°
2026-05-06 21:00 34.70777 -119.29167 30397 ft 458 kts 139°
2026-05-06 21:00 34.68224 -119.26952 29502 ft 446 kts 139°
2026-05-06 21:01 34.65739 -119.24792 28555 ft 436 kts 139°
2026-05-06 21:01 34.63298 -119.22675 27500 ft 430 kts 139°
2026-05-06 21:01 34.60887 -119.20595 26443 ft 424 kts 139°
2026-05-06 21:01 34.58507 -119.18545 25416 ft 418 kts 139°
2026-05-06 21:02 34.56192 -119.16549 24684 ft 413 kts 139°
2026-05-06 21:02 34.53870 -119.14506 24264 ft 412 kts 139°
2026-05-06 21:02 34.51557 -119.12449 24155 ft 412 kts 139°
2026-05-06 21:02 34.49242 -119.10389 24154 ft 413 kts 139°
2026-05-06 21:03 34.46921 -119.08334 24147 ft 413 kts 139°
2026-05-06 21:03 34.44613 -119.06295 24010 ft 408 kts 139°
2026-05-06 21:03 34.42320 -119.04290 23521 ft 406 kts 140°
2026-05-06 21:03 34.40057 -119.02329 22950 ft 405 kts 140°
2026-05-06 21:04 34.37768 -119.00353 22437 ft 403 kts 140°
2026-05-06 21:04 34.35501 -118.98393 22143 ft 399 kts 140°
2026-05-06 21:04 34.33242 -118.96423 22115 ft 400 kts 139°
2026-05-06 21:04 34.31007 -118.94398 22112 ft 400 kts 138°
2026-05-06 21:05 34.28814 -118.92394 22108 ft 400 kts 138°
2026-05-06 21:05 34.26579 -118.90357 22093 ft 399 kts 138°
2026-05-06 21:05 34.24368 -118.88345 21835 ft 394 kts 138°
2026-05-06 21:05 34.22190 -118.86342 21320 ft 393 kts 138°
2026-05-06 21:06 34.20065 -118.84385 21022 ft 384 kts 138°
2026-05-06 21:06 34.17965 -118.82459 20826 ft 373 kts 138°
2026-05-06 21:06 34.15963 -118.80538 20642 ft 361 kts 134°
2026-05-06 21:06 34.14108 -118.78556 20427 ft 350 kts 133°
2026-05-06 21:07 34.12320 -118.76603 20133 ft 343 kts 132°
2026-05-06 21:07 34.10596 -118.74712 19673 ft 337 kts 132°
2026-05-06 21:07 34.08868 -118.72819 18833 ft 338 kts 132°
2026-05-06 21:07 34.07131 -118.70924 18017 ft 337 kts 133°
2026-05-06 21:08 34.05410 -118.69057 17345 ft 330 kts 132°
2026-05-06 21:08 34.03751 -118.67200 16672 ft 321 kts 126°
2026-05-06 21:08 34.02735 -118.64966 16196 ft 295 kts 96°
2026-05-06 21:08 34.02500 -118.62565 15818 ft 286 kts 90°
2026-05-06 21:09 34.02325 -118.60221 15115 ft 286 kts 90°
2026-05-06 21:09 34.02128 -118.57838 14434 ft 284 kts 91°
2026-05-06 21:09 34.01918 -118.55493 13788 ft 280 kts 91°
2026-05-06 21:09 34.01707 -118.53211 13155 ft 277 kts 91°
2026-05-06 21:10 34.01493 -118.50910 12511 ft 275 kts 92°
2026-05-06 21:10 34.01282 -118.48652 11976 ft 268 kts 92°
2026-05-06 21:10 34.01090 -118.46448 11384 ft 264 kts 88°
2026-05-06 21:10 34.01230 -118.44286 10780 ft 257 kts 76°
2026-05-06 21:11 34.01584 -118.42175 9889 ft 267 kts 75°
2026-05-06 21:11 34.01982 -118.39962 8741 ft 281 kts 75°
2026-05-06 21:11 34.02395 -118.37636 7590 ft 293 kts 75°
2026-05-06 21:11 34.02779 -118.35213 6437 ft 302 kts 79°
2026-05-06 21:12 34.03048 -118.32741 5420 ft 304 kts 81°
2026-05-06 21:12 34.03298 -118.30225 4676 ft 296 kts 82°
2026-05-06 21:12 34.03543 -118.27855 4227 ft 279 kts 81°
2026-05-06 21:12 34.03784 -118.25620 4076 ft 256 kts 81°
2026-05-06 21:13 34.04001 -118.23600 3958 ft 236 kts 81°
2026-05-06 21:13 34.04211 -118.21684 3668 ft 224 kts 81°
2026-05-06 21:13 34.04406 -118.19867 3415 ft 212 kts 84°
2026-05-06 21:13 34.04201 -118.18153 3015 ft 211 kts 117°
2026-05-06 21:14 34.03220 -118.16921 2702 ft 208 kts 156°
2026-05-06 21:14 34.01790 -118.16662 2693 ft 209 kts 193°
2026-05-06 21:14 34.00524 -118.17428 2689 ft 207 kts 223°
2026-05-06 21:14 33.99513 -118.18676 2693 ft 207 kts 230°
2026-05-06 21:15 33.98582 -118.19986 2685 ft 206 kts 232°
2026-05-06 21:15 33.97772 -118.21422 2480 ft 207 kts 250°
2026-05-06 21:15 33.97459 -118.23182 2151 ft 220 kts 260°
2026-05-06 21:15 33.97129 -118.24879 2133 ft 195 kts 256°
2026-05-06 21:16 33.96796 -118.26360 2070 ft 173 kts 257°
2026-05-06 21:16 33.96585 -118.27737 1913 ft 164 kts 262°
2026-05-06 21:16 33.96399 -118.29062 1868 ft 153 kts 261°
2026-05-06 21:16 33.96255 -118.30261 1696 ft 137 kts 262°
2026-05-06 21:17 33.96118 -118.31355 1408 ft 130 kts 261°
2026-05-06 21:17 33.95997 -118.32447 1156 ft 134 kts 262°
2026-05-06 21:17 33.95887 -118.33607 1113 ft 134 kts 264°
2026-05-06 21:17 33.95775 -118.34720 943 ft 136 kts 262°
2026-05-06 21:18 33.95660 -118.35830 777 ft 130 kts 261°
2026-05-06 21:18 33.95559 -118.36912 611 ft 128 kts 262°
2026-05-06 21:18 33.95439 -118.37995 506 ft 132 kts 261°
2026-05-06 21:18 33.95327 -118.39086 368 ft 130 kts 262°
2026-05-06 21:19 33.95216 -118.40154 198 ft 131 kts 261°
2026-05-06 21:19 33.95104 -118.41238 143 ft 128 kts 261°
2026-05-06 21:19 33.95000 -118.42248 126 ft 111 kts 264°
2026-05-06 21:19 33.94932 -118.42922 120 ft 52 kts 263°
2026-05-06 21:20 33.94867 -118.43092 118 ft 13 kts 189°
2026-05-06 21:20 33.94839 -118.43092 118 ft 3 kts 176°
2026-05-06 21:20 33.94817 -118.43089 118 ft 0 kts 175°